• Join FlightAware (Why Join?)
  • Login
  • US Flag 
04:03AM EDT


 

Airport Tracker/Info


-or-


 

Live Flight TrackerFlight Track Log ✈ N317FL ✈ 24-Apr-2013 ✈ KPWK - KELM

Flight Track Log - Related Links

Times and Time Zones

All times are in EDT time to prevent confusion due to time zone crossing. See the N317FL flight status page for this flight to view local times or setup timezone preferences in your user account.

Time Position Orientation Groundspeed Altitude Reporting Facility
EDT Latitude Longitude Course Direction KTS MPH feet Rate Location/Type
07:59AM 42.1520 -87.9000 37° Northeast 181 208 3,100  Level FlightAware
07:59AM 42.1710 -87.8780 41° Northeast 179 206 3,600 1,260 Climbing FlightAware
08:00AM 42.1890 -87.8580 39° Northeast 197 227 4,300 1,740 Climbing FlightAware
08:00AM 42.2090 -87.8350 40° Northeast 209 241 5,200 1,500 Climbing FlightAware
08:01AM 42.2300 -87.8100 41° Northeast 237 273 5,700 1,800 Climbing FlightAware
08:01AM 42.2520 -87.7830 42° Northeast 242 278 6,900 2,460 Climbing FlightAware
08:02AM 42.2760 -87.7440 50° Northeast 255 293 8,200 2,220 Climbing FlightAware
08:02AM 42.2790 -87.7280 76° East 267 307 8,400 1,680 Climbing FlightAware
08:02AM 42.2780 -87.6860 92° East 278 320 9,200 2,820 Climbing FlightAware
08:03AM 42.2790 -87.6040 89° East 291 335 11,700 3,120 Climbing FlightAware
08:04AM 42.2810 -87.5220 88° East 298 343 13,900 2,220 Climbing FlightAware
08:04AM 42.2800 -87.4450 91° East 326 375 14,900 840 Climbing FlightAware
08:05AM 42.2800 -87.3750 90° East 336 387 15,000 1,320 Climbing FlightAware
08:06AM 42.2800 -87.2750 90° East 348 400 16,700 2,280 Climbing FlightAware
08:07AM 42.2800 -87.1840 90° East 357 411 18,500 2,460 Climbing FlightAware
08:07AM 42.2790 -87.0840 91° East 366 421 20,200 2,280 Climbing FlightAware
08:08AM 42.2810 -86.9830 88° East 373 429 21,800 2,100 Climbing FlightAware
08:09AM 42.2860 -86.8880 86° East 385 443 23,200 2,040 Climbing FlightAware
08:09AM 42.2910 -86.7770 86° East 405 466 24,700 2,220 Climbing FlightAware
08:10AM 42.2950 -86.6730 87° East 411 473 26,400 2,820 Climbing FlightAware
08:11AM 42.2990 -86.5560 87° East 405 466 28,700 2,820 Climbing FlightAware
08:11AM 42.3030 -86.4580 87° East 406 467 30,400 2,220 Climbing FlightAware
08:12AM 42.3070 -86.3420 87° East 418 481 31,900 1,920 Climbing FlightAware
08:13AM 42.3110 -86.2390 87° East 424 488 33,200 1,920 Climbing FlightAware
08:14AM 42.3150 -86.1160 87° East 425 489 34,700 1,800 Climbing FlightAware
08:14AM 42.3160 -86.0100 89° East 422 486 35,800 1,560 Climbing FlightAware
08:15AM 42.3140 -85.9030 91° East 428 493 36,800 1,320 Climbing FlightAware
08:16AM 42.3120 -85.7850 91° East 438 504 37,700 1,080 Climbing FlightAware
08:16AM 42.3100 -85.6740 91° East 448 516 38,400 1,020 Climbing FlightAware
08:17AM 42.3090 -85.5460 91° East 450 518 39,200 1,200 Climbing FlightAware
08:18AM 42.3070 -85.4350 91° East 447 514 40,100 1,200 Climbing FlightAware
08:18AM 42.3050 -85.3260 91° East 443 510 40,800 1,080 Climbing FlightAware
08:19AM 42.3030 -85.2030 91° East 438 504 41,700 1,200 Climbing FlightAware
08:20AM 42.3010 -85.0950 91° East 433 498 42,500 1,200 Climbing FlightAware
08:21AM 42.2990 -84.9840 91° East 424 488 43,300 960 Climbing FlightAware
08:21AM 42.2960 -84.8680 92° East 422 486 43,900 720 Climbing FlightAware
08:22AM 42.2940 -84.7620 91° East 421 484 44,400 780 Climbing FlightAware
08:23AM 42.2910 -84.6760 93° East 418 481 44,900 420 Climbing FlightAware
08:23AM 42.2880 -84.5390 92° East 428 493 45,000 60 Climbing FlightAware
08:24AM 42.2910 -84.4320 88° East 444 511 45,000  Level FlightAware
08:25AM 42.3100 -84.3050 79° East 449 517 45,000  Level FlightAware
08:25AM 42.3260 -84.1950 79° East 454 522 45,000  Level FlightAware
08:26AM 42.3410 -84.0840 80° East 459 528 45,000  Level FlightAware
08:27AM 42.3590 -83.9590 79° East 463 533 45,000  Level FlightAware
08:28AM 42.3750 -83.8430 79° East 466 536 45,000  Level FlightAware
08:29AM 42.3980 -83.6750 79° East 470 541 45,000  Level FlightAware
08:30AM 42.4050 -83.4850 87° East 469 540 45,000  Level FlightAware
08:30AM 42.4020 -83.3890 92° East 471 542 45,000  Level FlightAware
08:31AM 42.4000 -83.3020 92° East 473 544 45,000  Level FlightAware
08:31AM 42.3960 -83.1790 92° East 476 548 45,000  Level FlightAware
08:32AM 42.3910 -83.0400 93° East 477 549 45,000  Level FlightAware
08:33AM 42.3870 -82.9150 92° East 479 551 45,000  Level FlightAware
08:34AM 42.3830 -82.8090 93° East 480 552 45,000  Level FlightAware
08:35AM 42.3750 -82.6080 93° East 481 554 45,000  Level FlightAware
08:35AM 42.3710 -82.5100 93° East 481 554 45,000  Level FlightAware
08:36AM 42.3660 -82.3770 93° East 481 554 45,000  Level FlightAware
08:37AM 42.3620 -82.2730 93° East 482 555 45,000  Level FlightAware
08:37AM 42.3560 -82.1280 93° East 483 556 45,000  Level FlightAware
08:38AM 42.3500 -81.9920 93° East 483 556 45,000  Level FlightAware
08:39AM 42.3440 -81.8560 93° East 484 557 45,000  Level FlightAware
08:39AM 42.3380 -81.7270 94° East 485 558 45,000  Level FlightAware
08:40AM 42.3330 -81.6170 93° East 485 558 45,000  Level FlightAware
08:41AM 42.3260 -81.4710 94° East 488 562 45,000  Level FlightAware
08:42AM 42.3190 -81.3130 93° East 487 560 45,000  Level FlightAware
08:43AM 42.3120 -81.1760 94° East 488 562 45,000  Level FlightAware
08:43AM 42.3040 -81.0350 94° East 489 563 45,000  Level FlightAware
08:44AM 42.2970 -80.8940 94° East 486 559 45,000  Level FlightAware
08:45AM 42.2900 -80.7730 94° East 483 556 45,000  Level FlightAware
08:45AM 42.2840 -80.6530 94° East 481 554 45,000  Level FlightAware
08:46AM 42.2770 -80.5240 94° East 478 550 45,000  Level FlightAware
08:47AM 42.2700 -80.4120 95° East 477 549 45,000  Level FlightAware
08:47AM 42.2630 -80.2890 94° East 475 547 45,000  Level FlightAware
08:48AM 42.2550 -80.1530 94° East 474 545 45,000  Level FlightAware
08:49AM 42.2480 -80.0330 94° East 472 543 45,000 -180 Level FlightAware
08:49AM 42.2420 -79.9360 95° East 461 531 44,800 -1,800 Descending FlightAware
08:50AM 42.2320 -79.7830 95° East 481 554 42,500 -2,700 Descending FlightAware
08:51AM 42.2130 -79.6530 101° East 472 543 40,600 -2,520 Descending FlightAware
08:52AM 42.1760 -79.5490 116° Southeast 470 541 39,000 -2,220 Descending FlightAware
08:52AM 42.1410 -79.4440 114° Southeast 450 518 37,700 -2,040 Descending FlightAware
08:53AM 42.1200 -79.3420 105° East 449 517 36,300 -2,280 Descending FlightAware
08:54AM 42.1190 -79.2230 91° East 453 521 34,500 -2,340 Descending FlightAware
08:54AM 42.1210 -79.1130 89° East 453 521 33,000 -2,280 Descending FlightAware
08:55AM 42.1240 -78.9850 88° East 451 519 31,300 -2,340 Descending FlightAware
08:56AM 42.1270 -78.8740 88° East 446 513 29,700 -2,340 Descending FlightAware
08:57AM 42.1310 -78.7530 87° East 434 499 28,000 -2,280 Descending FlightAware
08:57AM 42.1500 -78.6470 76° East 424 488 26,500 -1,680 Descending FlightAware
08:58AM 42.1710 -78.5470 74° East 411 473 25,800 -1,680 Descending FlightAware
08:58AM 42.1800 -78.4590 82° East 409 471 24,400 -2,520 Descending FlightAware
08:59AM 42.1800 -78.3370 90° East 404 465 22,500 -2,400 Descending FlightAware
09:00AM 42.1790 -78.2250 91° East 402 463 20,800 -2,100 Descending FlightAware
09:01AM 42.1780 -78.1280 91° East 398 458 19,400 -2,160 Descending FlightAware
09:01AM 42.1770 -78.0250 91° East 370 426 17,800 -2,220 Descending FlightAware
09:02AM 42.1760 -77.9250 91° East 350 403 16,300 -1,980 Descending FlightAware
09:03AM 42.1750 -77.8370 91° East 338 389 14,900 -1,920 Descending FlightAware
09:04AM 42.1740 -77.7510 91° East 330 380 13,600 -2,100 Descending FlightAware
09:04AM 42.1730 -77.6640 91° East 328 377 12,100 -1,980 Descending FlightAware
09:05AM 42.1720 -77.5770 91° East 321 369 10,800 -1,020 Descending FlightAware
09:06AM 42.1710 -77.5100 91° East 321 369 10,800  Level FlightAware
09:06AM 42.1700 -77.4420 91° East 321 369 10,800  Level FlightAware
09:07AM 42.1690 -77.3740 91° East 321 369 10,800 -3,540 Level FlightAware
09:08AM 42.1600 -77.2697 91° East 309 356 6,100 -3,900 Descending New York Center
09:09AM 42.1208 -77.1847 122° Southeast 271 312 4,300 -1,320 Descending New York Center
09:10AM 42.0939 -77.1039 114° Southeast 255 293 3,500 -480 Descending New York Center
09:11AM 42.1083 -77.0297 75° East 221 254 3,400 -600 Descending New York Center
09:12AM 42.1181 -76.9636 79° East 202 232 2,300 -1,140 Descending New York Center